When you browse on this site, cookies collect data to enhance your experience and personalize the content and advertising you see.
Visit our Privacy Policy to learn more. By continuing to use the site, you agree to this use of cookies and data.
  • In Germany
  • List of Countries
  • For 7 days
  • Water Temperature
  • Satellite Maps
  • Weather Map
  • Weather Widgets
  • user-avatar
    Login

    Hourly Weather Hadera

    Today, 17 December, Monday

    Time Temperature Precipitation Wind Pressure Humidity
    00:00 +13°C° 1 mm 4 mps 718 mmHg 87%
    01:00 +13°C° 1 mm 4 mps 718 mmHg 86%
    02:00 +12°C° 0 mm 3 mps 717 mmHg 86%
    03:00 +12°C° 1 mm 3 mps 717 mmHg 87%
    04:00 +12°C° 1 mm 3 mps 717 mmHg 87%
    05:00 +11°C° 1 mm 3 mps 717 mmHg 88%
    06:00 +12°C° 1.1 mm 3 mps 717 mmHg 86%
    07:00 +12°C° 1.1 mm 3 mps 717 mmHg 85%
    08:00 +13°C° 0 mm 3 mps 716 mmHg 82%
    09:00 +13°C° 0.7 mm 3 mps 716 mmHg 78%
    10:00 +14°C° 0.7 mm 4 mps 716 mmHg 74%
    11:00 +15°C° 0.7 mm 4 mps 717 mmHg 70%
    12:00 +15°C° 0.7 mm 4 mps 717 mmHg 71%
    13:00 +15°C° 0.7 mm 4 mps 717 mmHg 71%
    14:00 +15°C° 0.7 mm 4 mps 716 mmHg 72%
    15:00 +14°C° 0.4 mm 4 mps 717 mmHg 76%
    16:00 +13°C° 0.4 mm 4 mps 717 mmHg 79%
    17:00 +13°C° 0.4 mm 4 mps 717 mmHg 82%
    18:00 +13°C° 0.2 mm 4 mps 717 mmHg 84%
    19:00 +12°C° 0.2 mm 4 mps 717 mmHg 85%
    20:00 +12°C° 0.2 mm 4 mps 718 mmHg 86%
    21:00 +12°C° 0.2 mm 4 mps 718 mmHg 87%
    22:00 +12°C° 0.2 mm 4 mps 718 mmHg 87%
    23:00 +12°C° 0.2 mm 4 mps 719 mmHg 88%

    Tomorrow, 18 December, Tuesday

    Time Temperature Precipitation Wind Pressure Humidity
    00:00 +12°C° 0.2 mm 4 mps 719 mmHg 88%
    01:00 +12°C° 0.2 mm 4 mps 719 mmHg 88%
    02:00 +12°C° 0.2 mm 4 mps 719 mmHg 88%
    03:00 +12°C° 0.2 mm 4 mps 719 mmHg 88%
    04:00 +12°C° 0.2 mm 4 mps 719 mmHg 89%
    05:00 +12°C° 0.2 mm 4 mps 719 mmHg 89%
    06:00 +12°C° 0.2 mm 4 mps 719 mmHg 89%
    07:00 +12°C° 0.2 mm 4 mps 720 mmHg 88%
    08:00 +13°C° 0.2 mm 4 mps 720 mmHg 88%
    09:00 +13°C° 0.1 mm 4 mps 720 mmHg 83%
    10:00 +14°C° 0.1 mm 3 mps 720 mmHg 79%
    11:00 +14°C° 0.1 mm 3 mps 720 mmHg 74%
    12:00 +14°C° 0 mm 3 mps 720 mmHg 71%
    13:00 +15°C° 0 mm 4 mps 720 mmHg 69%
    14:00 +15°C° 0 mm 4 mps 719 mmHg 66%
    15:00 +14°C° 0.3 mm 5 mps 719 mmHg 70%
    16:00 +14°C° 0.3 mm 5 mps 719 mmHg 74%
    17:00 +13°C° 0.3 mm 6 mps 718 mmHg 79%
    18:00 +13°C° 1.5 mm 6 mps 718 mmHg 82%
    19:00 +12°C° 1.5 mm 7 mps 718 mmHg 85%
    20:00 +12°C° 1.5 mm 8 mps 718 mmHg 88%
    21:00 +12°C° 3.1 mm 8 mps 718 mmHg 90%
    22:00 +11°C° 3.1 mm 8 mps 718 mmHg 91%
    23:00 +11°C° 3.1 mm 8 mps 718 mmHg 93%

    Day after tomorrow, 19 December, Wednesday

    Time Temperature Precipitation Wind Pressure Humidity
    00:00 +11°C° 1.6 mm 7 mps 718 mmHg 90%
    01:00 +11°C° 1.6 mm 7 mps 717 mmHg 88%
    02:00 +11°C° 1.6 mm 6 mps 717 mmHg 85%
    03:00 +11°C° 0.6 mm 6 mps 717 mmHg 85%
    04:00 +11°C° 0.6 mm 6 mps 716 mmHg 85%
    05:00 +10°C° 0.6 mm 6 mps 716 mmHg 86%
    06:00 +10°C° 0.8 mm 6 mps 716 mmHg 85%
    07:00 +11°C° 0.8 mm 6 mps 716 mmHg 84%
    08:00 +11°C° 0.8 mm 6 mps 716 mmHg 84%
    09:00 +11°C° 0.9 mm 6 mps 717 mmHg 80%
    10:00 +13°C° 0.9 mm 6 mps 717 mmHg 77%
    11:00 +14°C° 0.9 mm 6 mps 717 mmHg 74%
    12:00 +13°C° 1.6 mm 6 mps 716 mmHg 74%
    13:00 +13°C° 1.6 mm 6 mps 716 mmHg 75%
    14:00 +13°C° 1.6 mm 6 mps 716 mmHg 75%
    15:00 +11°C° 1.2 mm 6 mps 715 mmHg 78%
    16:00 +12°C° 1.2 mm 5 mps 715 mmHg 82%
    17:00 +10°C° 1.2 mm 5 mps 715 mmHg 85%
    18:00 +10°C° 0.6 mm 5 mps 716 mmHg 85%
    19:00 +11°C° 0.6 mm 4 mps 716 mmHg 85%
    20:00 +11°C° 0.6 mm 4 mps 716 mmHg 86%
    21:00 +11°C° 0.6 mm 4 mps 716 mmHg 86%
    22:00 +11°C° 0.6 mm 4 mps 716 mmHg 86%
    23:00 +11°C° 0.6 mm 4 mps 716 mmHg 87%

    20 December, Thursday

    Time Temperature Precipitation Wind Pressure Humidity
    00:00 +10°C° 0.6 mm 4 mps 716 mmHg 88%
    01:00 +10°C° 0.6 mm 4 mps 716 mmHg 88%
    02:00 +10°C° 0.6 mm 4 mps 716 mmHg 89%
    03:00 +10°C° 0.3 mm 4 mps 716 mmHg 89%
    04:00 +10°C° 0.3 mm 4 mps 716 mmHg 90%
    05:00 +9°C° 0.3 mm 3 mps 717 mmHg 90%
    06:00 +10°C° 0.1 mm 3 mps 717 mmHg 89%
    07:00 +10°C° 0.1 mm 3 mps 718 mmHg 87%
    08:00 +11°C° 0.1 mm 3 mps 718 mmHg 86%
    09:00 +12°C° 0 mm 3 mps 719 mmHg 80%
    10:00 +13°C° 0 mm 2 mps 719 mmHg 74%
    11:00 +14°C° 0 mm 2 mps 719 mmHg 68%
    12:00 +14°C° 0 mm 2 mps 719 mmHg 68%
    13:00 +13°C° 0 mm 3 mps 719 mmHg 67%
    14:00 +13°C° 0 mm 3 mps 719 mmHg 67%
    15:00 +12°C° 0 mm 3 mps 720 mmHg 70%
    16:00 +12°C° 0 mm 3 mps 720 mmHg 74%
    17:00 +11°C° 0 mm 3 mps 720 mmHg 78%
    18:00 +11°C° 0 mm 3 mps 721 mmHg 79%
    19:00 +10°C° 0 mm 2 mps 721 mmHg 80%
    20:00 +10°C° 0 mm 2 mps 722 mmHg 81%
    21:00 +10°C° 0 mm 2 mps 722 mmHg 80%
    22:00 +10°C° 0 mm 3 mps 722 mmHg 78%
    23:00 +10°C° 0 mm 3 mps 722 mmHg 77%

    21 December, Friday

    Time Temperature Precipitation Wind Pressure Humidity
    00:00 +10°C° 0 mm 3 mps 722 mmHg 77%
    01:00 +10°C° 0 mm 3 mps 722 mmHg 77%
    02:00 +10°C° 0 mm 3 mps 722 mmHg 76%
    03:00 +10°C° 0 mm 3 mps 722 mmHg 78%
    04:00 +10°C° 0 mm 3 mps 722 mmHg 80%
    05:00 +10°C° 0 mm 3 mps 722 mmHg 82%
    06:00 +10°C° 0 mm 2 mps 723 mmHg 81%
    07:00 +12°C° 0 mm 2 mps 723 mmHg 81%
    08:00 +12°C° 0 mm 2 mps 723 mmHg 80%
    09:00 +13°C° 0 mm 2 mps 724 mmHg 76%
    10:00 +14°C° 0 mm 2 mps 724 mmHg 71%
    11:00 +15°C° 0 mm 2 mps 724 mmHg 67%
    12:00 +15°C° 0 mm 2 mps 724 mmHg 68%
    13:00 +15°C° 0 mm 2 mps 723 mmHg 69%
    14:00 +14°C° 0 mm 3 mps 723 mmHg 70%
    15:00 +13°C° 0 mm 3 mps 723 mmHg 73%
    16:00 +12°C° 0 mm 3 mps 723 mmHg 77%
    17:00 +12°C° 0 mm 3 mps 723 mmHg 80%
    18:00 +11°C° 0 mm 3 mps 723 mmHg 82%
    19:00 +11°C° 0 mm 3 mps 723 mmHg 83%
    20:00 +11°C° 0 mm 3 mps 724 mmHg 84%
    21:00 +11°C° 0 mm 3 mps 723 mmHg 83%
    22:00 +11°C° 0 mm 3 mps 723 mmHg 83%
    23:00 +11°C° 0 mm 4 mps 723 mmHg 83%

    22 December, Saturday

    Time Temperature Precipitation Wind Pressure Humidity
    00:00 +11°C° 0 mm 4 mps 723 mmHg 82%
    01:00 +10°C° 0 mm 4 mps 723 mmHg 82%
    02:00 +10°C° 0 mm 4 mps 722 mmHg 81%
    03:00 +10°C° 0 mm 4 mps 722 mmHg 81%
    04:00 +10°C° 0 mm 4 mps 722 mmHg 81%
    05:00 +10°C° 0 mm 4 mps 722 mmHg 81%
    06:00 +10°C° 0 mm 4 mps 722 mmHg 81%
    07:00 +10°C° 0 mm 4 mps 722 mmHg 80%
    08:00 +11°C° 0 mm 4 mps 722 mmHg 80%
    09:00 +12°C° 0 mm 4 mps 722 mmHg 74%
    10:00 +12°C° 0 mm 4 mps 722 mmHg 68%
    11:00 +13°C° 0 mm 4 mps 723 mmHg 62%
    12:00 +14°C° 0 mm 4 mps 722 mmHg 61%
    13:00 +14°C° 0 mm 4 mps 722 mmHg 59%
    14:00 +14°C° 0 mm 5 mps 722 mmHg 58%
    15:00 +13°C° 0 mm 4 mps 722 mmHg 61%
    16:00 +12°C° 0 mm 4 mps 722 mmHg 63%
    17:00 +11°C° 0 mm 4 mps 722 mmHg 66%
    18:00 +11°C° 0 mm 3 mps 722 mmHg 66%
    19:00 +11°C° 0 mm 3 mps 722 mmHg 66%
    20:00 +10°C° 0 mm 3 mps 723 mmHg 65%
    21:00 +10°C° 0 mm 2 mps 723 mmHg 66%
    22:00 +10°C° 0 mm 2 mps 723 mmHg 67%
    23:00 +9°C° 0 mm 2 mps 723 mmHg 68%
    Show more